CAPE
0 0 0 42 25 299 259 91 4 0 0 0 0 0 0 0 47 176 0 0 0 0 4 22 36 34 29 27 19 7 6 7 8 4 3 2 1 2 1 1 1 3 5 8 10 5 4 2 2
0 0 0 0 69 77 30 8 0 0 0 0 0 0 0 0 0 0 0 0 0 0 9 18 32 31 25 22 16 9 7 9 4 2 1 1 1 1 0 1 2 3 4 4 6 4 2 3 3
0 0 0 0 40 69 134 0 0 0 0 0 0 0 0 0 0 0 0 0 0 3 6 18 41 32 26 20 20 11 6 4 0 0 0 1 0 1 0 0 0 0 1 3 0 0 6 7 4
0 0 0 0 0 0 12 0 0 0 0 0 0 0 0 0 0 0 0 0 0 4 6 35 55 39 22 13 10 7 4 3 0 0 0 0 0 1 0 0 0 0 0 0 0 3 5 1 0
0 0 0 0 0 1 2 0 0 0 0 0 0 0 0 0 0 0 0 0 0 6 5 15 60 38 12 16 11 7 2 0 0 0 0 0 0 0 0 0 0 0 0 0 8 5 1 0 0
0 0 0 0 0 0 0 0 0 0 0 0 0 2 0 0 0 0 0 0 2 2 10 21 35 21 18 14 7 4 2 0 0 0 0 0 0 0 0 0 0 0 0 0 1 0 0 0 0
0 0 0 0 0 0 0 0 0 0 0 0 0 24 0 0 0 0 0 5 0 3 5 22 19 22 34 26 4 0 0 0 0 0 0 0 0 0 0 0 0 0 0 0 0 0 0 0 0
0 0 0 0 0 0 0 0 0 0 0 0 0 0 0 0 0 0 1 0 0 0 2 12 17 8 10 6 4 0 0 0 0 0 0 0 0 0 0 0 0 0 0 0 0 0 0 0 0
0 0 0 0 0 0 0 0 0 0 0 0 0 0 0 0 0 5 2 7 3 4 20 33 9 16 6 2 5 1 0 0 0 0 0 0 0 0 0 0 0 0 0 0 0 0 0 0 0
0 0 0 0 0 0 0 0 0 0 0 0 0 0 2 15 28 23 2 2 0 4 8 21 24 18 1 0 0 0 0 0 0 0 0 0 0 0 0 0 0 0 0 0 0 0 0 0 0
0 0 0 0 0 0 0 0 0 0 0 0 0 0 4 50 56 35 4 0 0 3 2 10 40 28 0 0 0 0 0 0 0 9 0 0 0 0 0 0 0 0 0 0 0 0 0 0 0
0 0 0 0 0 0 0 0 0 0 0 0 0 0 0 46 61 69 49 0 0 0 7 1 0 8 28 0 0 6 2 12 8 0 0 0 0 0 0 0 0 0 0 0 0 0 0 0 0
0 0 0 0 0 0 0 0 0 0 0 0 0 0 13 35 72 101 81 12 3 2 11 0 0 0 21 41 34 42 37 4 14 6 0 0 0 0 0 0 0 0 0 0 0 0 0 0 0
0 0 0 0 0 0 0 0 0 0 0 0 0 0 9 33 71 106 69 10 6 0 4 14 0 3 5 9 31 6 0 23 0 1 2 0 0 0 0 0 0 0 0 0 0 0 0 0 0
0 0 0 0 0 0 0 0 0 0 0 0 0 0 0 10 78 126 64 5 0 0 0 18 14 10 12 4 3 0 9 0 0 3 17 0 0 0 0 0 0 0 0 0 0 0 0 0 0
0 0 0 0 0 0 0 14 0 0 0 0 0 0 0 8 97 97 11 0 0 0 0 0 2 3 6 22 37 0 1 5 0 4 15 26 15 5 0 0 0 0 1 0 0 0 0 0 0
5 1 4 5 0 0 0 28 0 0 0 0 0 13 2 5 36 44 3 0 0 0 2 0 14 13 22 33 19 35 23 3 0 3 2 21 33 25 6 0 0 0 0 0 0 0 0 0 0
0 0 0 0 0 0 0 53 10 0 0 0 0 7 19 42 58 4 1 0 1 15 55 17 35 33 1 19 40 6 7 10 6 6 7 23 11 9 4 2 3 0 0 0 1 4 3 2 0
0 0 0 0 0 0 0 11 3 0 0 0 0 12 13 8 0 0 0 1 23 63 83 59 42 11 0 0 1 0 2 32 37 28 29 15 2 2 4 1 0 0 0 0 1 19 15 3 0
0 0 0 0 0 0 0 57 1 0 0 0 0 18 8 0 0 3 8 2 10 39 88 88 80 59 18 1 8 33 5 1 1 0 0 14 8 12 1 0 0 0 0 4 19 10 6 10 8
0 0 0 0 0 0 0 78 0 0 0 4 3 1 7 1 3 3 2 4 10 22 16 7 15 30 54 51 10 2 1 0 0 0 5 4 2 2 11 1 0 3 8 0 0 20 20 1 0
0 0 0 0 0 0 2 96 1 3 3 1 4 3 3 0 0 0 8 4 9 18 26 57 28 12 28 33 7 11 22 17 1 0 0 0 0 0 0 0 1 10 4 1 4 7 15 19 5
0 0 0 0 0 0 0 139 1 0 3 6 12 7 10 9 10 13 24 16 8 17 27 38 14 12 15 27 20 3 0 0 0 0 0 0 0 1 6 5 1 13 13 4 5 10 18 14 12
0 0 0 0 18 75 130 87 0 3 6 12 15 11 13 18 16 26 27 29 15 17 26 8 0 0 0 0 0 0 0 1 0 0 0 0 0 0 0 12 27 39 25 10 1 1 4 11 16
0 0 52 77 22 216 1 0 18 0 0 2 11 8 20 19 17 17 13 11 11 3 3 0 0 0 0 0 0 0 0 0 0 0 0 0 0 0 0 0 0 0 19 37 22 6 4 13 11
1 9 43 14 54 35 1 25 37 18 1 4 12 17 16 11 16 18 11 12 1 2 0 0 0 0 0 0 0 0 0 0 0 0 0 0 0 0 0 0 0 0 0 0 4 23 15 13 19
0 0 0 78 100 2 17 18 19 7 2 4 13 14 11 14 13 7 7 11 1 0 0 0 0 0 0 0 0 0 0 0 0 1 0 0 0 0 0 1 5 2 0 1 2 0 13 27 25
1 0 35 13 31 31 38 6 22 16 9 16 7 7 3 0 4 4 4 0 0 0 0 0 0 0 0 0 0 0 0 0 0 0 0 0 0 6 3 4 8 9 11 3 2 1 0 1 0
0 2 0 2 1 8 47 24 44 30 24 16 10 3 3 4 9 3 0 0 0 0 0 0 0 0 0 0 0 0 0 0 0 9 21 20 15 14 8 5 2 3 1 0 2 0 0 2 0
1 0 12 10 3 14 81 10 84 32 7 5 3 1 5 4 2 0 0 0 0 0 0 0 0 0 0 0 0 0 6 12 6 15 5 3 10 14 16 14 8 3 2 6 0 0 1 0 1
CIN
0 0 0 -310 -211 -56 -48 -6 -16 -3 0 0 0 0 0 0 -289 -238 0 0 0 0 -0 0 0 -0 -0 0 0 0 0 -0 0 0 0 0 0 0 -0 0 0 0 0 0 0 0 0 0 0
0 0 0 0 -116 -54 -11 -47 0 0 0 0 0 0 0 -20 0 0 0 0 0 0 -1 -1 0 0 0 -0 -0 -0 -0 0 0 0 0 0 -0 0 0 0 0 0 0 0 0 0 0 0 0
0 0 0 0 -75 -28 -4 0 0 0 0 0 0 0 0 0 0 0 0 0 0 0 -1 -1 0 -0 -0 0 -0 -0 0 0 0 0 0 0 0 0 0 0 -0 0 0 0 0 0 0 -0 0
0 0 0 0 0 0 -13 -1 0 0 0 0 0 0 0 0 0 0 0 0 -0 -0 -6 0 0 0 0 0 0 -0 0 0 0 0 0 0 0 0 0 0 0 0 0 -0 0 0 0 -0 0
0 0 0 0 0 -1 -26 0 0 0 0 0 0 0 0 0 0 0 0 0 0 -4 -6 0 0 0 -0 0 -0 -0 -0 0 0 0 0 0 0 0 0 0 0 0 0 0 0 -0 -0 0 0
0 0 0 0 0 0 0 0 0 0 0 0 0 -42 0 0 0 0 0 -1 -10 0 -4 -1 -0 0 0 -0 -0 0 0 0 0 0 0 0 0 0 0 0 0 0 0 0 0 -0 0 0 0
0 0 0 0 0 0 0 0 0 0 0 0 0 -67 0 0 0 0 0 -6 0 -1 -7 -3 -1 -0 -1 0 0 0 0 0 0 0 0 0 0 0 0 0 0 0 0 0 0 0 0 0 0
0 0 0 0 0 -0 0 0 0 0 0 0 0 0 0 0 -13 0 -1 0 0 -1 -11 -6 -3 -1 -2 -1 -0 -0 0 0 0 0 0 0 0 0 0 0 0 0 0 0 0 0 0 0 0
0 0 0 0 0 0 0 0 0 0 0 0 0 0 0 0 0 -101 -1 -8 -17 -30 -6 -5 -5 -4 -6 -2 -0 0 0 0 0 0 0 0 0 0 0 0 0 0 0 0 0 0 0 0 0
0 0 0 0 0 0 0 0 0 0 0 0 0 0 -61 -251 -241 -221 -0 -8 -18 -9 -5 -3 -6 -6 -6 0 0 0 0 0 0 0 0 0 0 0 0 0 0 0 0 0 0 0 0 0 0
0 0 0 0 0 0 0 0 0 0 0 0 0 0 -126 -223 -199 -164 -59 -0 0 -1 -9 -1 -6 -12 0 0 0 0 0 0 0 -14 0 0 0 0 0 0 0 0 0 0 0 0 0 0 0
0 0 0 0 0 0 0 0 0 0 0 0 0 0 0 -180 -148 -114 -97 0 0 -2 -3 -4 0 -9 -15 -3 0 -18 -18 -20 -25 0 0 0 0 0 0 0 0 0 0 0 0 0 0 0 0
0 0 0 0 0 0 0 0 0 0 0 0 0 0 -160 -140 -104 -70 -58 -16 -29 -10 -4 -11 0 0 -8 -7 -25 -19 -16 -16 -18 -42 0 0 0 0 0 0 0 0 0 0 0 0 0 0 0
0 0 0 0 0 0 0 0 0 0 0 0 0 0 -126 -102 -58 -33 -26 -15 -27 0 -7 -18 0 -3 -5 -18 -9 -24 -9 -21 0 -4 -23 0 0 0 0 0 0 0 0 0 0 0 0 0 0
0 0 0 0 0 0 0 0 0 0 0 0 0 0 0 -50 -14 -3 -6 -44 0 0 0 -21 -22 -9 -8 -11 -5 0 -19 0 -8 -29 -23 0 0 0 0 0 0 0 0 0 0 0 0 0 0
0 0 0 0 0 0 0 -18 0 0 0 0 0 0 0 -23 0 -2 -48 0 0 0 -1 0 -1 -4 -3 -7 -13 -8 -6 -24 0 -25 -27 -32 -43 -28 -4 0 0 0 -13 0 0 0 0 0 0
-6 -1 -19 -21 0 0 0 -14 0 0 0 0 0 -2 -3 -1 -0 -24 -40 0 0 0 -19 0 -3 -10 -8 -4 -17 -13 -21 -35 -11 -58 -9 -19 -27 -30 -27 0 0 0 0 0 0 0 0 0 0
0 0 0 0 -1 0 0 -4 -39 0 0 0 0 -2 -1 -1 -3 -28 -18 0 -24 -11 -9 -14 -12 -18 -2 -21 -16 -20 -32 -20 -16 -19 -17 -31 -25 -32 -8 -22 -11 0 0 0 -2 -9 -10 -10 0
0 0 0 0 -1 0 0 -1 -30 0 0 0 0 -2 -2 -55 -0 0 -26 -96 -78 -42 -40 -49 -49 -62 -0 0 -28 -0 -15 -21 -18 -24 -25 -28 -24 -31 -22 -13 0 0 0 0 -8 -7 -7 -12 0
0 0 0 0 0 0 0 -56 -47 0 0 0 -0 -3 -24 -7 -2 -15 -45 -80 -41 -27 -16 -21 -16 -20 -26 -7 -27 -10 -23 -17 -28 -54 0 -31 -36 -41 -5 0 0 0 0 -12 -11 -11 -14 -10 -12
0 0 0 0 0 0 0 -49 0 0 -0 -0 -8 -16 -5 -1 -2 -6 -11 -43 -52 -58 -76 -57 -40 -28 -16 -17 -17 -14 -15 0 0 0 -25 -12 -14 -10 -35 -15 0 -21 -9 0 -4 -8 -8 -12 0
0 0 0 0 0 0 -4 -23 0 -1 -0 -2 -2 -6 -8 -7 0 -0 -11 -21 -33 -25 -22 -9 -9 -10 -11 -13 -26 -26 -15 -9 -3 0 0 0 0 0 0 0 -16 -27 -20 -12 -11 -10 -11 -9 -11
0 0 0 0 0 0 0 -7 0 -0 -1 -1 -7 -3 -3 -1 -0 -0 -1 -2 -0 -2 -8 -8 -14 -8 -12 -13 -22 -30 0 0 0 0 0 0 0 -16 -22 -13 -2 -26 -32 -29 -16 -13 -11 -15 -15
0 0 0 -1 -0 -1 -15 -54 0 -1 -0 -1 -1 -4 -3 -0 -0 -0 -0 -0 -6 -5 -12 -8 0 0 0 0 0 0 0 -10 0 0 0 0 0 0 0 -24 -22 -22 -30 -32 -12 -12 -17 -17 -13
0 0 0 -7 -24 -2 -0 0 -0 0 0 0 -0 -2 -4 -5 -0 -0 -1 -1 -2 -5 -8 0 0 0 0 0 0 0 0 0 0 0 0 0 0 0 0 0 0 0 -28 -28 -29 -29 -18 -12 -19
0 -0 0 0 -2 -1 -5 0 0 -0 -1 -1 -1 -1 -1 -1 -0 -0 -2 -1 -1 -3 -1 0 0 0 0 0 0 0 0 0 0 0 0 0 0 0 0 0 0 0 0 0 -32 -19 -22 -16 -19
0 0 -4 -1 -4 -1 -0 -2 -3 -16 -1 -0 -0 -0 -1 -1 -0 -0 -0 -3 -4 0 0 0 0 0 0 0 0 0 0 0 -5 -12 0 0 0 0 0 0 0 0 -0 0 -0 0 -8 -21 -24
-0 0 -35 -27 -1 -0 -1 -1 -11 -0 -2 -0 -1 -1 -1 -0 -0 -1 -2 0 0 0 0 0 0 0 0 0 0 0 0 -16 0 0 0 0 0 0 -0 -0 -0 -0 0 0 0 -0 0 -4 0
0 0 0 -1 0 0 -0 0 -7 -0 -0 -1 -1 -0 -0 -1 -0 -1 0 0 0 0 0 0 0 0 0 0 0 0 0 0 0 -1 -0 -0 -0 -0 -1 -2 -3 -1 -0 0 -1 0 0 0 0
0 0 -0 -5 0 -0 -0 -1 -10 -2 -1 -0 -0 -0 -0 -0 -1 0 0 0 0 0 0 0 0 0 0 0 0 0 -0 -1 -0 -0 -1 -2 -0 -0 0 0 -1 -5 -0 -0 0 0 -0 0 0
Wind_Speed
7 9 8 9 8 9 17 14 19 13 16 13 12 7 14 14 9 11 15 22 23 20 17 17 19 19 19 18 16 15 14 14 13 12 12 12 12 12 13 12 11 11 11 11 11 11 12 12 12
10 11 10 7 11 14 11 11 2 14 14 8 3 3 6 9 12 17 13 22 21 19 16 16 20 20 18 18 16 15 14 14 12 11 11 11 11 10 11 11 11 10 11 10 12 11 11 12 12
10 15 9 8 13 16 18 12 11 11 10 1 2 11 8 8 14 13 18 22 20 17 15 16 19 19 18 17 15 14 14 13 11 10 10 10 10 9 10 10 10 9 9 10 10 10 11 12 13
7 7 8 9 16 19 18 7 13 7 10 8 4 12 7 6 10 12 21 21 18 16 16 17 18 18 17 16 14 14 13 12 10 9 9 8 8 8 9 7 8 8 8 8 8 8 12 11 12
10 8 11 17 21 23 9 9 10 11 6 7 5 12 9 13 16 20 20 19 17 18 15 16 18 16 16 16 14 13 12 10 8 9 9 8 8 5 7 6 6 7 7 8 8 10 9 10 12
9 10 12 14 18 15 10 15 12 11 10 8 6 15 9 14 18 17 17 16 21 17 14 15 18 17 15 15 14 12 11 10 8 8 8 7 6 7 6 5 6 6 7 6 6 6 7 9 11
11 12 16 19 19 21 7 10 5 9 10 14 7 10 13 16 18 17 15 16 19 17 14 12 12 13 15 14 14 12 11 9 9 8 7 6 6 5 4 4 6 6 5 3 2 3 5 7 9
13 12 19 17 17 18 12 6 4 5 7 6 9 6 11 18 18 16 16 18 18 13 12 12 12 11 10 9 14 12 10 10 9 7 6 5 5 6 5 4 5 4 4 3 2 3 4 7 9
17 11 13 21 15 16 16 16 12 4 4 6 10 9 20 21 19 15 15 18 14 10 11 10 10 10 10 9 10 11 11 9 8 7 6 5 5 7 8 8 5 3 1 2 1 2 7 10 11
14 11 19 21 16 14 16 15 14 8 18 13 13 13 20 20 17 17 16 16 14 12 11 10 9 9 10 10 9 7 8 7 7 8 8 6 2 4 4 6 7 6 4 5 6 7 9 10 6
16 15 17 17 12 12 12 13 13 11 13 10 8 14 15 18 16 16 16 18 15 10 9 11 7 7 8 11 7 6 6 6 6 6 8 3 2 4 4 5 4 4 8 5 7 6 6 2 4
17 15 12 13 10 11 9 11 14 12 8 8 4 12 15 16 15 15 15 19 14 14 12 12 9 5 5 7 7 7 6 5 4 5 5 2 3 4 3 2 2 3 5 2 4 2 1 3 3
12 12 12 5 4 3 5 8 10 9 6 8 8 15 15 14 14 13 13 15 17 12 12 12 10 5 3 3 3 2 2 3 3 5 6 3 3 2 1 2 1 2 3 2 2 3 3 0 3
14 13 11 9 6 5 8 6 4 8 1 7 7 3 11 11 12 12 11 12 13 12 12 10 11 6 3 4 3 2 2 1 2 2 4 6 2 3 3 3 3 3 3 3 2 2 2 3 4
7 12 13 13 5 3 2 1 10 6 10 6 6 5 2 7 10 9 8 11 9 11 11 9 9 7 5 5 3 2 2 3 2 4 5 6 5 4 4 3 4 4 3 3 2 2 3 4 5
14 15 15 11 10 7 5 10 10 9 8 11 4 8 3 2 5 8 12 9 8 11 12 7 7 7 3 3 2 2 4 3 3 3 3 7 7 7 5 4 4 4 3 3 3 3 4 4 4
11 11 7 8 9 2 3 10 11 13 13 13 12 7 6 4 4 11 10 7 8 14 12 7 3 7 5 4 2 4 5 3 3 4 4 4 5 6 5 4 4 4 4 4 4 4 4 3 3
14 15 14 13 10 5 9 9 15 13 12 10 10 6 4 6 5 10 9 17 13 12 8 6 5 7 5 4 3 4 4 4 5 4 5 6 4 5 4 4 5 5 4 4 4 5 4 4 4
13 14 14 12 10 6 9 3 17 14 13 13 12 12 15 18 12 14 18 19 15 14 10 8 4 1 3 6 7 4 8 5 3 3 6 4 4 4 5 4 4 4 5 5 6 4 6 4 3
13 16 15 11 11 5 9 19 16 13 14 14 12 15 16 15 11 13 14 14 11 8 5 5 4 6 7 2 4 5 2 3 4 5 8 11 9 7 6 5 5 5 4 5 6 6 4 3 5
12 12 13 12 14 14 10 16 13 10 15 15 15 15 14 13 10 11 10 8 7 3 2 5 6 7 9 6 3 3 3 3 7 9 7 4 5 5 6 7 6 6 4 4 5 5 7 5 4
12 11 13 15 13 11 4 6 3 10 13 15 11 11 11 11 9 6 6 3 5 5 3 6 6 5 4 4 3 6 7 9 6 6 6 5 6 6 6 5 6 6 5 6 6 6 4 5 6
12 15 17 17 14 11 15 6 6 9 15 14 11 9 8 7 6 3 3 2 2 1 1 4 6 8 7 6 5 4 6 6 7 7 8 7 6 7 7 7 8 8 6 7 7 6 5 6 4
7 16 18 16 13 8 11 6 5 11 11 12 13 11 8 7 5 4 3 3 3 4 5 6 7 8 8 7 7 7 7 7 7 7 8 8 8 6 6 7 6 7 10 10 9 9 9 7 5
14 15 6 7 4 5 3 15 9 13 12 11 11 9 7 4 3 5 8 8 8 8 7 7 10 11 9 8 7 7 7 7 8 8 6 7 5 5 7 8 8 7 6 8 10 10 10 9 7
14 13 5 5 6 3 7 6 4 11 11 9 6 5 7 8 6 7 8 7 8 9 7 7 9 11 11 9 8 7 7 6 6 5 6 5 6 7 11 10 10 10 9 11 9 9 8 10 8
7 10 3 5 9 7 4 2 9 12 6 5 5 8 8 9 10 10 10 8 8 6 7 7 8 10 10 9 6 6 6 6 7 8 8 5 7 9 13 13 13 12 12 10 9 7 6 5 8
8 12 5 6 4 4 5 7 5 7 6 11 10 10 12 12 11 10 9 9 8 7 6 7 7 9 8 7 6 7 7 9 9 10 10 10 10 9 9 10 10 9 9 8 7 3 4 1 3
9 6 6 5 3 2 3 3 2 8 11 9 8 8 8 9 9 9 10 10 9 8 7 7 8 9 9 9 9 9 11 11 10 9 9 8 8 9 10 10 10 9 8 8 6 6 3 4 4
17 7 5 3 3 3 2 2 6 6 9 10 9 10 9 8 9 10 10 10 10 10 10 10 9 9 9 10 10 14 11 11 9 9 8 9 10 10 10 9 10 9 7 8 9 9 8 8 9
Wind_Direction
185 210 227 255 256 229 264 277 6 37 73 34 35 22 96 37 29 106 137 103 116 126 130 138 137 132 131 126 121 116 113 106 97 94 90 84 80 76 66 62 53 50 49 47 48 42 39 38 33
230 212 232 282 251 279 288 87 192 48 43 39 74 308 129 72 96 121 129 122 123 128 137 135 136 136 132 127 126 119 116 106 102 98 95 91 85 81 70 64 58 51 47 45 48 43 40 41 35
269 271 269 236 249 260 276 90 359 57 107 51 92 56 43 95 122 148 126 119 129 139 134 134 136 133 132 128 126 122 115 116 110 106 102 101 88 91 72 63 60 53 47 46 46 46 52 44 32
244 223 242 254 261 272 287 328 3 27 117 127 301 91 76 79 128 123 129 133 130 123 124 134 137 135 134 131 134 124 120 114 111 108 105 94 81 89 78 61 62 55 46 46 42 59 45 38 28
238 269 263 260 263 263 0 18 7 324 315 92 101 88 93 97 102 134 132 134 140 118 130 136 136 141 137 137 130 128 125 116 117 108 101 103 94 84 91 63 60 55 46 42 61 52 43 31 21
251 259 279 274 302 319 6 60 30 328 315 125 168 120 113 118 134 141 138 139 118 130 133 138 140 138 144 139 130 129 126 123 121 135 104 101 82 72 71 67 59 66 40 43 51 48 36 22 11
257 269 282 294 302 292 70 66 14 344 330 27 32 76 128 143 145 144 136 119 116 119 130 138 142 146 137 132 135 136 135 134 120 108 106 113 115 106 94 77 68 45 14 22 36 48 11 355 348
248 272 292 288 277 301 78 78 28 356 15 349 39 86 159 146 146 143 130 111 120 138 151 151 144 149 143 142 142 144 145 145 132 122 129 141 162 161 156 143 99 47 21 356 36 33 333 318 314
273 279 274 273 310 348 9 8 3 98 251 64 54 53 131 139 144 144 137 126 127 142 149 147 152 154 149 144 150 150 151 153 148 154 185 205 218 189 155 107 126 117 48 305 176 266 282 290 288
245 252 266 295 345 357 355 345 319 327 43 78 72 84 122 146 153 153 154 126 132 160 150 142 157 154 150 152 140 163 163 174 191 186 181 218 148 76 58 155 171 178 198 213 214 240 264 281 264
253 248 276 296 343 1 337 301 40 20 42 22 16 129 144 158 162 164 167 134 142 171 158 153 155 148 178 125 172 172 174 184 197 189 193 183 68 169 202 167 183 176 209 216 201 215 238 259 26
239 256 278 309 12 353 326 319 72 53 34 23 340 163 161 170 174 176 173 143 165 186 154 148 152 160 214 151 189 176 180 179 158 169 151 271 193 201 192 268 0 209 166 182 205 267 50 96 252
285 285 268 307 322 82 330 43 86 59 20 40 9 136 157 178 181 185 175 151 157 155 146 147 142 169 218 191 229 153 124 149 186 137 162 200 307 324 285 275 329 325 328 308 224 248 264 29 271
297 323 302 298 269 126 289 119 352 54 353 56 42 99 160 184 187 187 167 150 141 142 139 135 139 154 127 272 82 59 7 79 86 299 163 165 190 303 314 298 256 233 222 243 233 291 347 347 333
314 275 260 224 180 156 67 187 72 8 347 99 101 64 145 179 182 176 151 116 134 138 135 125 129 147 161 250 117 267 250 205 269 213 185 169 180 221 235 267 269 272 270 241 223 250 262 231 243
247 246 260 188 141 126 201 104 83 18 21 9 83 97 359 142 156 140 102 115 130 136 122 136 164 150 180 201 201 259 252 206 250 268 233 191 187 193 213 244 258 263 248 238 235 212 229 240 241
218 299 232 153 115 346 184 136 94 43 30 12 349 116 118 130 175 100 104 122 139 118 122 144 132 141 175 230 300 250 275 297 271 272 280 255 203 199 196 216 257 282 281 249 232 239 208 248 268
333 331 327 317 115 95 328 97 81 54 33 18 3 42 93 127 132 96 83 54 51 93 104 91 77 42 32 345 306 251 272 249 226 228 244 251 235 221 196 209 228 230 246 267 253 223 229 213 238
313 312 308 299 94 28 8 2 66 63 45 28 24 38 46 68 58 70 67 62 52 45 36 35 31 245 221 220 228 267 249 248 256 249 252 259 243 216 222 219 228 241 234 236 250 242 218 239 240
324 304 290 294 43 7 302 85 74 64 63 49 34 76 78 62 57 64 67 71 57 47 28 346 291 244 223 211 237 256 314 307 312 314 297 277 253 240 220 216 222 239 258 262 227 223 252 238 207
324 334 351 343 325 299 251 73 59 61 67 63 57 56 63 114 128 105 84 57 42 44 307 280 275 252 248 253 259 315 319 323 288 269 270 289 286 258 217 211 209 213 225 247 249 230 211 223 252
308 8 327 307 301 286 293 82 135 78 83 72 68 75 74 86 84 85 112 155 204 227 241 237 272 294 269 271 255 251 259 264 281 290 293 298 301 290 275 252 225 209 205 218 236 246 239 212 223
302 331 302 286 268 269 273 204 34 328 78 82 68 73 76 72 77 81 137 23 20 293 69 3 345 313 306 309 310 304 298 296 300 295 293 299 296 290 271 251 236 220 210 211 216 242 238 226 214
325 297 296 269 253 233 36 73 54 48 37 63 78 76 65 68 72 70 64 14 13 1 15 346 329 315 324 323 318 311 296 291 291 291 291 282 268 265 277 268 254 236 219 212 208 213 222 237 224
330 348 342 23 54 12 319 83 40 39 50 53 58 70 81 92 19 356 4 357 359 354 346 341 334 315 317 313 306 311 314 307 296 292 295 306 302 306 308 325 330 320 298 220 206 206 212 218 212
21 22 25 333 26 37 356 51 29 0 52 58 85 73 49 32 15 4 8 354 353 339 347 339 321 322 320 322 325 318 319 306 309 312 305 308 358 5 344 335 331 327 340 343 322 213 204 206 207
345 16 37 332 360 82 43 26 49 337 87 89 39 40 28 14 16 2 354 3 347 346 347 330 331 320 325 323 319 317 308 320 305 357 20 343 333 321 316 309 286 286 299 314 329 333 262 202 192
36 24 15 15 42 86 118 66 32 10 30 44 31 19 16 2 355 357 359 353 351 357 333 336 329 325 324 331 329 339 345 354 341 327 324 310 313 286 274 270 270 268 254 244 266 285 352 81 72
11 24 6 96 65 53 103 47 218 349 32 34 27 21 4 354 359 352 3 355 350 341 342 336 340 338 354 347 355 6 344 328 320 313 315 303 282 269 264 260 261 255 240 235 217 214 200 206 123
73 44 59 344 48 31 62 5 337 20 30 23 21 2 5 359 15 14 358 349 347 345 355 350 346 358 345 11 346 340 334 344 343 324 314 298 287 278 266 253 249 245 229 230 222 227 222 214 207